Torna al catalogo

SL-16 DEB

AttivoLEO
NORAD 24301·DEBRIS·🇷🇺 Russia

Lanciato Sep 4, 1996 da Baikonur Cosmodrome

Loading…

Prossimi Passaggi (prossime 24 ore)

TLE

AggiornatoSource: Space-Track

Epoca: Sep 14, 2026, 15:49 UTC

1 24301U 96051E   26257.65969119 -.00000017  00000-0  23548-4 0  9994
2 24301  70.9950 335.3577 0205155  49.8616 101.0648 13.72629870503246

Traccia SL-16 DEB in tempo reale con AllMySat

Download on the App Store